"Pseudo-MPEC" for C1FX255

Created 2026 Aug 26 0:35:06 UT using Find_Orb

Click here for an explanation of pseudo-MPECs

 
 Astrometry: 
     C1FX255*1C2026 08 23.34386822 54 02.128-01 40 07.14   ~8OFo 22.19GVNEOCPV00
     C1FX255 1C2026 08 23.34946122 54 00.007-01 39 30.89   ~8OFo       VNEOCPV00
     C1FX255 1C2026 08 23.35504922 53 57.887-01 38 55.21   ~8OFo 21.22GVNEOCPV00
     C1FX255 1C2026 08 23.36063022 53 55.777-01 38 19.82   ~8OFo 21.46GVNEOCPV00
     C1FX255 0C2026 08 23.42608022 53 31.200-01 31 20.20   ~8OFo 21.7 RVNEOCP291
     C1FX255 0C2026 08 23.43037022 53 29.580-01 30 52.10   ~8OFo       VNEOCP291
     C1FX255 1C2026 08 23.45217222 53 21.469-01 28 33.67   ~8OFo 21.97GVNEOCPV00
     C1FX255 1C2026 08 23.45615522 53 19.986-01 28 08.00   ~8OFo 21.99GVNEOCPV00
     C1FX255 1C2026 08 23.46012422 53 18.532-01 27 42.70   ~8OFo 21.81GVNEOCPV00
     C1FX255 1C2026 08 23.46408122 53 17.030-01 27 17.57   ~8OFo 22.02GVNEOCPV00

Station data:
(291) LPL/Spacewatch II  (N31.961669 W111.599905)  US/Arizona.  Observers J.
   V. Scotti, R. S. McMillan. 1.8-m f/2.7 reflector + CCD.
(V00) Kitt Peak-Bok  (N31.963125 W111.600190)  US/Arizona. Measurers T.
   Beuden, V. F. Carvajal, D. Fay, J. B. Fazekas, D. C. Fuls, A. R. Gibbs, A.
   D. Grauer, H. Gröller, J. K. Hogan, R. A. Kowalski, S. M. Larson, G. J.
   Leonard, D. Rankin, R. L. Seaman, F. C. Shelly, K. W. Wierzchoś. 2.25-m
   reflector + 4x4K mosaic CCD.

Orbital elements:  C1FX255
   Perihelion 2026 Dec 3.531449 +/- 68.8 TT = 12:45:17.2 (JD 2461378.031449)
Epoch 2026 Aug 23.0 TT = JDT 2461275.5   Earth MOID: 0.1681      AutoNEOCP
M 284.502230693 +/- 49              (J2000 ecliptic)
n   0.736337677 +/- 0.334           Peri.   95.267675 +/- 80
a   1.214557370 +/- 0.367           Node   330.555557 +/- 1.0
e   0.15936008 +/- 0.232            Incl.   26.867280 +/- 11
P   1.339/488.897d         H 24.56  G  0.15   U 12.0  SR
q 1.021005401 +/- 0.156    Q 1.408109339 +/- 5.07
From 10 observations 2026 Aug. 23 (2.9 hr); mean residual 0".40
Residuals in arcseconds: 
260823 V00  .46+  .40-    260823 291  .37-  .49+    260823 V00  .50+  .27-    
260823 V00  .17+  .11+    260823 291  .57-  1.1+    260823 V00  .10+  .52-    
260823 V00  .12-  .07+    260823 V00  .04+  .24-    
260823 V00  .31-  .22-    260823 V00  .10+  .11-    

Ephemerides (geocentric):
Date (UTC) HH   RA             Dec           delta  r     elong  mag " sig PA
---- --------  ------------   ------------  ------ ------ -----  --- --------
2026 08 26 01  22 37 10.733   +03 17 20.12  .18309 1.1886 165.3 22.0 1619  41
2026 08 26 02  22 36 54.485   +03 22 02.95  .18301 1.1885 165.3 22.0 1669  41
2026 08 26 03  22 36 38.219   +03 26 45.96  .18293 1.1884 165.2 22.0 1720  41
2026 08 26 04  22 36 21.935   +03 31 29.14  .18286 1.1883 165.2 22.0 1771  40
2026 08 26 05  22 36 05.633   +03 36 12.49  .18278 1.1882 165.2 22.0 1823  40
2026 08 26 06  22 35 49.314   +03 40 56.01  .18270 1.1881 165.2 22.0 1876  40
2026 08 26 07  22 35 32.978   +03 45 39.70  .18263 1.1880 165.1 22.0 1930  40
2026 08 26 08  22 35 16.624   +03 50 23.55  .18255 1.1879 165.1 22.0 1984  40
2026 08 26 09  22 35 00.253   +03 55 07.56  .18248 1.1878 165.1 22.0 2039  40
2026 08 26 10  22 34 43.864   +03 59 51.72  .18240 1.1877 165.0 22.0 2094  40
2026 08 26 11  22 34 27.458   +04 04 36.04  .18233 1.1876 165.0 22.0 2151  40
2026 08 26 12  22 34 11.035   +04 09 20.51  .18226 1.1875 165.0 22.0 2208  40
2026 08 26 13  22 33 54.595   +04 14 05.13  .18219 1.1874 164.9 22.0 2266  40
2026 08 26 14  22 33 38.138   +04 18 49.90  .18212 1.1873 164.9 22.0 2324  40
2026 08 26 15  22 33 21.664   +04 23 34.81  .18205 1.1872 164.8 22.0 2384  40
2026 08 26 16  22 33 05.173   +04 28 19.85  .18198 1.1871 164.8 22.0 2444  40
2026 08 26 17  22 32 48.666   +04 33 05.04  .18191 1.1870 164.8 22.0 2504  40
2026 08 26 18  22 32 32.141   +04 37 50.36  .18184 1.1869 164.7 22.0 2566  40
2026 08 26 19  22 32 15.600   +04 42 35.82  .18178 1.1868 164.7 22.0 2628  40
2026 08 26 20  22 31 59.043   +04 47 21.40  .18171 1.1867 164.6 22.0 2691  40
2026 08 26 21  22 31 42.469   +04 52 07.11  .18164 1.1865 164.6 22.0 2754  40
2026 08 26 22  22 31 25.878   +04 56 52.94  .18158 1.1864 164.5 22.0 2819  40
2026 08 26 23  22 31 09.271   +05 01 38.89  .18152 1.1863 164.5 22.0 2884  40
2026 08 27 00  22 30 52.648   +05 06 24.96  .18145 1.1862 164.4 22.0 2949  40
2026 08 27 01  22 30 36.009   +05 11 11.14  .18139 1.1861 164.4 22.0 3016  40
2026 08 27 02  22 30 19.353   +05 15 57.44  .18133 1.1860 164.4 22.0 3083  40
2026 08 27 03  22 30 02.682   +05 20 43.85  .18127 1.1859 164.3 22.0 3150  40
2026 08 27 04  22 29 45.994   +05 25 30.36  .18121 1.1858 164.2 22.0 3219  40
2026 08 27 05  22 29 29.291   +05 30 16.97  .18115 1.1857 164.2 22.0 3288  40
2026 08 27 06  22 29 12.571   +05 35 03.69  .18109 1.1856 164.1 22.0 3358  40
2026 08 27 07  22 28 55.836   +05 39 50.50  .18103 1.1855 164.1 22.0 3428  40
2026 08 27 08  22 28 39.086   +05 44 37.40  .18097 1.1854 164.0 22.0 3499  40
2026 08 27 09  22 28 22.320   +05 49 24.40  .18092 1.1853 164.0 22.0 3571  40
2026 08 27 10  22 28 05.538   +05 54 11.49  .18086 1.1852 163.9 22.0 3644  40
2026 08 27 11  22 27 48.741   +05 58 58.66  .18080 1.1851 163.9 22.0 3717  40
2026 08 27 12  22 27 31.928   +06 03 45.91  .18075 1.1850 163.8 22.0 3791  40
2026 08 27 13  22 27 15.100   +06 08 33.25  .18070 1.1849 163.8 22.0 3866  40
2026 08 27 14  22 26 58.257   +06 13 20.66  .18064 1.1848 163.7 22.0 3941  40
2026 08 27 15  22 26 41.399   +06 18 08.14  .18059 1.1847 163.6 22.0 4017  40
2026 08 27 16  22 26 24.526   +06 22 55.69  .18054 1.1846 163.6 22.0 4094  40
2026 08 27 17  22 26 07.638   +06 27 43.31  .18049 1.1844 163.5 22.0 4171  40
2026 08 27 18  22 25 50.735   +06 32 31.00  .18044 1.1843 163.5 22.0 4249  40
2026 08 27 19  22 25 33.817   +06 37 18.74  .18039 1.1842 163.4 22.0 4328  40
2026 08 27 20  22 25 16.885   +06 42 06.55  .18034 1.1841 163.3 22.0 4407  40
2026 08 27 21  22 24 59.938   +06 46 54.41  .18029 1.1840 163.3 22.0 4487  40
2026 08 27 22  22 24 42.976   +06 51 42.32  .18025 1.1839 163.2 22.0 4568  40
2026 08 27 23  22 24 26.000   +06 56 30.28  .18020 1.1838 163.1 22.0 4649  40
2026 08 28 00  22 24 09.009   +07 01 18.29  .18016 1.1837 163.1 22.0 4731  40